�N����,����,�~����,�C��,���x,�C��,����,���ϕ���,�ő�u�ԕ���,�ő厞����,���˗�,�I�_���x,�n�����x,�ő啗���N��,DTYPE
"19/05/24","00:10",0.0,15.9,62.6,1005.0,288.0,0.7,1.2,316.7,0.00,8.8,19.2,"00:00:08",1
"19/05/24","00:20",0.0,15.9,64.7,1005.0,290.7,1.0,1.9,327.2,0.00,9.3,19.0,"00:16:24",1
"19/05/24","00:30",0.0,16.0,63.4,1005.2,288.1,1.0,2.4,323.5,0.00,9.1,19.0,"00:29:04",1
"19/05/24","00:40",0.0,15.7,63.3,1005.0,297.9,1.0,2.4,330.6,0.00,8.8,19.1,"00:36:16",1
"19/05/24","00:50",0.0,15.4,65.7,1005.2,286.0,0.7,1.3,320.0,0.00,9.1,18.7,"00:40:48",1
"19/05/24","01:00",0.0,15.5,65.7,1005.0,323.7,1.3,2.0,324.8,0.00,9.2,18.7,"00:55:04",1
"19/05/24","01:10",0.0,14.8,67.1,1005.2,308.0,1.2,1.9,325.1,0.00,8.8,18.6,"01:01:20",1
"19/05/24","01:20",0.0,14.6,69.6,1005.0,310.6,1.1,1.8,329.9,0.00,9.2,18.6,"01:19:04",1
"19/05/24","01:30",0.0,14.5,69.9,1005.0,273.9,0.6,1.2,304.5,0.00,9.1,18.5,"01:23:04",1
"19/05/24","01:40",0.0,14.6,69.8,1004.8,282.3,1.0,1.4,318.2,0.00,9.2,18.3,"01:31:12",1
"19/05/24","01:50",0.0,14.7,69.8,1005.0,291.2,1.0,1.9,316.8,0.00,9.3,18.3,"01:42:32",1
"19/05/24","02:00",0.0,14.8,69.4,1005.0,295.1,1.0,2.0,314.7,0.00,9.3,18.3,"01:54:16",1
"19/05/24","02:10",0.0,14.8,68.2,1004.8,291.2,1.0,1.8,306.8,0.00,9.0,18.1,"02:01:28",1
"19/05/24","02:20",0.0,14.7,68.0,1005.0,322.4,1.0,1.9,322.6,0.00,8.9,18.1,"02:17:36",1
"19/05/24","02:30",0.0,14.9,68.4,1005.2,327.0,1.5,2.6,330.7,0.00,9.2,17.9,"02:26:32",1
"19/05/24","02:40",0.0,15.1,67.3,1004.8,331.3,1.5,2.7,331.7,0.00,9.1,17.8,"02:30:16",1
"19/05/24","02:50",0.0,15.0,66.6,1005.2,330.5,1.2,2.0,334.9,0.00,8.9,17.8,"02:42:24",1
"19/05/24","03:00",0.0,14.6,68.4,1005.2,289.1,0.8,2.2,323.4,0.00,8.9,17.8,"02:58:24",1
"19/05/24","03:10",0.0,14.6,68.7,1005.5,290.7,1.1,2.9,305.8,0.00,9.0,17.7,"03:09:28",1
"19/05/24","03:20",0.0,14.6,68.1,1005.5,295.6,1.2,2.5,339.5,0.00,8.8,17.7,"03:17:36",1
"19/05/24","03:30",0.0,14.4,69.0,1005.5,305.5,1.1,2.2,311.8,0.00,8.8,17.6,"03:29:28",1
"19/05/24","03:40",0.0,14.9,67.9,1005.5,317.9,2.3,4.5,328.7,0.00,9.1,17.6,"03:36:48",1
"19/05/24","03:50",0.0,14.6,68.2,1005.7,283.3,0.8,1.2,296.0,0.00,8.8,17.5,"03:47:20",1
"19/05/24","04:00",0.0,14.5,69.0,1005.7,306.6,1.8,3.5,329.1,0.00,8.9,17.4,"03:56:16",1
"19/05/24","04:10",0.0,14.3,68.7,1006.0,296.9,1.1,2.2,330.0,0.00,8.7,17.4,"04:00:16",1
"19/05/24","04:20",0.0,14.2,68.6,1005.5,304.0,1.6,3.3,337.4,0.00,8.6,17.4,"04:11:44",1
"19/05/24","04:30",0.0,14.0,69.5,1006.0,293.7,1.3,2.6,316.7,0.00,8.6,17.4,"04:28:24",1
"19/05/24","04:40",0.0,13.7,70.6,1006.0,286.7,1.0,1.7,314.5,0.00,8.5,17.3,"04:35:44",1
"19/05/24","04:50",0.0,13.8,71.5,1005.7,293.5,1.5,3.1,309.1,0.00,8.8,17.4,"04:44:56",1
"19/05/24","05:00",0.0,13.5,71.5,1005.5,290.3,0.7,1.9,306.9,0.00,8.5,17.1,"04:59:56",1
"19/05/24","05:10",0.0,13.6,72.0,1006.4,305.6,1.7,3.4,329.8,0.00,8.7,17.1,"05:06:24",1
"19/05/24","05:20",0.0,14.0,70.9,1005.7,300.7,2.0,4.0,317.9,0.00,8.8,17.1,"05:12:48",1
"19/05/24","05:30",0.0,14.2,70.8,1006.2,306.6,2.2,4.2,330.9,0.00,9.0,17.0,"05:24:32",1
"19/05/24","05:40",0.0,14.4,69.6,1006.2,319.3,2.8,4.2,316.4,0.00,9.0,16.9,"05:38:16",1
"19/05/24","05:50",0.0,14.3,69.3,1006.2,294.3,1.7,3.5,319.2,0.00,8.8,16.9,"05:41:04",1
"19/05/24","06:00",0.0,14.0,71.2,1006.4,282.5,1.0,1.4,263.0,0.00,8.9,17.1,"05:53:44",1
"19/05/24","06:10",0.0,14.2,71.7,1006.4,335.4,1.2,2.1,337.5,0.00,9.2,16.9,"06:02:24",1
"19/05/24","06:20",0.0,14.6,70.8,1006.9,339.9,1.3,2.5,340.1,0.02,9.4,16.9,"06:12:48",1
"19/05/24","06:30",0.0,15.0,71.0,1006.7,343.2,0.8,1.7,352.5,0.03,9.8,17.0,"06:28:08",1
"19/05/24","06:40",0.0,15.8,69.6,1007.1,324.6,0.7,1.7,331.1,0.04,10.3,17.0,"06:35:28",1
"19/05/24","06:50",0.0,16.5,67.4,1006.9,334.4,0.7,1.4,329.6,0.06,10.5,16.7,"06:48:00",1
"19/05/24","07:00",0.0,16.5,67.7,1007.6,341.6,0.8,1.4,335.9,0.08,10.6,17.1,"06:58:08",1
"19/05/24","07:10",0.0,17.1,67.6,1007.1,332.9,0.7,1.2,355.9,0.10,11.1,17.1,"07:04:48",1
"19/05/24","07:20",0.0,17.9,64.8,1007.1,294.1,0.6,1.2,333.3,0.12,11.2,17.3,"07:15:44",1
"19/05/24","07:30",0.0,18.3,62.9,1007.1,36.6,0.3,1.1,114.8,0.15,11.2,17.5,"07:29:20",1
"19/05/24","07:40",0.0,19.2,60.4,1007.4,260.9,0.1,0.6,1.3,0.17,11.4,17.5,"07:30:40",1
"19/05/24","07:50",0.0,19.5,57.9,1007.1,46.3,0.2,1.2,344.3,0.20,11.0,17.7,"07:40:02",1
"19/05/24","08:00",0.0,19.3,58.5,1007.1,351.8,1.1,2.2,342.7,0.22,11.0,17.7,"07:52:16",1
"19/05/24","08:10",0.0,19.9,55.1,1007.1,356.4,0.7,1.9,1.3,0.25,10.7,17.9,"08:08:32",1
"19/05/24","08:20",0.0,20.4,55.3,1006.9,347.3,0.6,1.6,347.1,0.27,11.2,18.0,"08:18:24",1
"19/05/24","08:30",0.0,20.8,53.9,1006.9,217.1,0.6,1.4,231.2,0.30,11.2,18.2,"08:24:08",1
"19/05/24","08:40",0.0,21.5,51.5,1006.9,206.3,0.3,1.3,220.8,0.32,11.1,18.3,"08:30:16",1
"19/05/24","08:50",0.0,21.8,49.0,1006.9,88.8,0.7,1.6,117.0,0.34,10.7,18.6,"08:44:40",1
"19/05/24","09:00",0.0,22.3,52.3,1006.7,209.9,0.6,1.4,219.3,0.37,12.1,18.6,"08:58:48",1
"19/05/24","09:10",0.0,22.8,49.0,1006.7,171.2,0.7,1.7,166.0,0.39,11.6,18.9,"09:01:52",1
"19/05/24","09:20",0.0,23.3,48.5,1005.7,167.4,0.6,1.8,124.4,0.41,11.9,19.0,"09:19:28",1
"19/05/24","09:30",0.0,24.0,46.9,1006.2,174.0,0.7,2.5,146.7,0.43,12.0,19.2,"09:28:48",1
"19/05/24","09:40",0.0,24.3,48.7,1006.2,189.5,1.3,2.8,228.0,0.45,12.9,19.5,"09:35:12",1
"19/05/24","09:50",0.0,24.5,47.1,1006.2,191.4,1.8,3.5,225.0,0.46,12.5,19.8,"09:40:40",1
"19/05/24","10:00",0.0,24.7,46.0,1006.4,182.9,1.5,3.2,175.9,0.48,12.4,19.9,"09:53:04",1
"19/05/24","10:10",0.0,25.2,47.3,1006.7,187.5,1.2,3.3,208.0,0.50,13.2,20.3,"10:09:20",1
"19/05/24","10:20",0.0,25.6,45.0,1006.7,176.8,1.5,3.2,216.5,0.51,12.8,20.4,"10:16:32",1
"19/05/24","10:30",0.0,26.0,44.1,1006.9,189.1,1.1,3.2,356.0,0.53,12.9,20.8,"10:28:00",1
"19/05/24","10:40",0.0,26.4,42.5,1006.7,242.1,1.0,3.2,213.0,0.54,12.7,21.2,"10:32:16",1
"19/05/24","10:50",0.0,26.4,38.0,1006.7,212.2,2.0,4.5,227.1,0.55,11.0,21.3,"10:47:36",1
"19/05/24","11:00",0.0,26.4,38.8,1006.4,189.1,2.1,3.9,150.1,0.56,11.3,21.6,"10:54:16",1
"19/05/24","11:10",0.0,26.9,39.2,1006.4,187.8,1.1,2.5,188.7,0.57,11.9,21.9,"11:02:32",1
"19/05/24","11:20",0.0,27.8,37.4,1006.7,162.6,1.2,4.0,176.3,0.58,12.0,22.2,"11:19:12",1
"19/05/24","11:30",0.0,27.3,29.4,1006.7,317.9,1.5,3.6,340.8,0.59,8.0,22.5,"11:27:36",1
"19/05/24","11:40",0.0,27.8,34.7,1006.2,285.2,1.3,4.0,230.9,0.60,10.9,22.8,"11:36:00",1
"19/05/24","11:50",0.0,28.0,23.6,1006.4,229.1,1.8,4.8,215.5,0.61,5.4,23.2,"11:47:28",1
"19/05/24","12:00",0.0,28.6,26.5,1006.2,232.4,1.8,3.9,224.1,0.62,7.6,23.2,"11:51:52",1
"19/05/24","12:10",0.0,28.5,25.7,1006.0,226.3,2.1,4.9,226.9,0.62,7.0,23.6,"12:08:48",1
"19/05/24","12:20",0.0,28.8,26.6,1006.0,234.9,2.0,4.3,223.6,0.62,7.8,23.8,"12:10:24",1
"19/05/24","12:30",0.0,28.7,24.6,1005.7,230.1,2.6,5.5,229.6,0.62,6.6,24.0,"12:26:48",1
"19/05/24","12:40",0.0,28.9,27.3,1005.5,233.8,2.5,4.7,212.0,0.62,8.2,24.4,"12:34:16",1
"19/05/24","12:50",0.0,29.5,26.0,1006.0,255.3,2.0,5.8,209.3,0.62,8.0,24.7,"12:40:56",1
"19/05/24","13:00",0.0,29.6,24.1,1005.7,294.9,1.7,4.4,357.1,0.62,7.0,24.6,"12:56:00",1
"19/05/24","13:10",0.0,29.2,22.0,1005.5,244.0,1.7,6.3,231.2,0.61,5.4,24.8,"13:00:02",1
"19/05/24","13:20",0.0,29.5,23.1,1005.7,230.0,2.2,5.4,221.5,0.60,6.3,24.6,"13:16:24",1
"19/05/24","13:30",0.0,29.9,23.2,1005.5,218.1,2.7,4.8,217.1,0.60,6.7,24.5,"13:29:12",1
"19/05/24","13:40",0.0,29.7,22.5,1005.0,248.5,2.2,5.2,227.3,0.59,6.1,24.7,"13:30:40",1
"19/05/24","13:50",0.0,30.2,23.1,1005.5,298.3,2.0,5.4,342.5,0.58,6.9,24.5,"13:44:32",1
"19/05/24","14:00",0.0,30.4,23.3,1005.7,314.6,1.7,4.8,218.8,0.57,7.2,24.6,"13:50:16",1
"19/05/24","14:10",0.0,30.5,21.1,1005.7,307.0,1.6,3.5,244.9,0.56,5.8,24.6,"14:07:04",1
"19/05/24","14:20",0.0,30.7,21.5,1005.0,254.9,2.0,5.2,233.9,0.55,6.3,24.4,"14:12:40",1
"19/05/24","14:30",0.0,30.5,22.0,1005.2,305.6,1.8,4.9,347.0,0.54,6.4,24.5,"14:29:52",1
"19/05/24","14:40",0.0,30.7,21.7,1005.2,335.9,2.0,4.7,344.7,0.52,6.4,24.6,"14:35:04",1
"19/05/24","14:50",0.0,30.7,24.9,1005.5,310.7,0.8,2.4,322.2,0.51,8.4,24.8,"14:47:28",1
"19/05/24","15:00",0.0,31.0,22.5,1005.5,248.2,1.7,5.2,334.6,0.49,7.2,24.8,"14:50:02",1
"19/05/24","15:10",0.0,30.8,23.9,1005.2,11.4,2.0,5.4,340.1,0.47,7.9,24.9,"15:06:16",1
"19/05/24","15:20",0.0,30.7,23.7,1005.0,28.2,1.1,4.2,13.1,0.45,7.7,25.1,"15:16:48",1
"19/05/24","15:30",0.0,30.8,23.9,1005.0,340.3,2.3,4.7,326.8,0.43,7.9,25.2,"15:24:32",1
"19/05/24","15:40",0.0,31.0,26.2,1005.0,334.1,1.5,4.2,341.8,0.41,9.4,25.1,"15:31:12",1
"19/05/24","15:50",0.0,31.2,20.9,1004.5,31.1,1.6,4.9,3.2,0.39,6.3,25.2,"15:44:56",1
"19/05/24","16:00",0.0,31.4,21.8,1004.8,359.9,1.7,4.4,32.6,0.37,7.0,25.2,"15:52:00",1
"19/05/24","16:10",0.0,31.3,24.1,1004.8,354.7,1.7,4.5,339.9,0.35,8.4,25.1,"16:08:40",1
"19/05/24","16:20",0.0,31.7,20.5,1004.5,328.1,1.1,2.9,333.8,0.33,6.4,25.3,"16:18:40",1
"19/05/24","16:30",0.0,31.9,20.0,1004.8,6.9,1.1,2.5,353.8,0.30,6.2,25.1,"16:25:20",1
"19/05/24","16:40",0.0,31.9,22.3,1005.0,293.7,1.1,5.2,26.6,0.27,7.8,25.2,"16:39:52",1
"19/05/24","16:50",0.0,31.0,26.5,1005.0,75.1,1.5,6.0,41.6,0.25,9.6,25.1,"16:49:28",1
"19/05/24","17:00",0.0,30.4,27.6,1004.8,121.3,1.5,4.7,179.1,0.22,9.7,25.1,"16:53:44",1
"19/05/24","17:10",0.0,30.2,29.4,1004.8,127.6,1.3,2.9,141.3,0.19,10.5,24.9,"17:04:16",1
"19/05/24","17:20",0.0,30.2,28.8,1004.8,116.3,1.1,3.2,141.8,0.16,10.1,24.9,"17:13:36",1
"19/05/24","17:30",0.0,29.8,27.9,1004.5,151.1,1.7,5.0,163.9,0.07,9.3,24.8,"17:26:40",1
"19/05/24","17:40",0.0,29.8,27.6,1004.5,83.2,1.3,7.3,26.9,0.03,9.2,24.6,"17:35:44",1
"19/05/24","17:50",0.0,29.6,26.2,1004.3,96.4,1.3,3.6,44.5,0.02,8.2,24.6,"17:40:02",1
"19/05/24","18:00",0.0,29.2,27.9,1004.3,168.7,1.7,3.2,159.2,0.02,8.8,24.5,"17:54:24",1
"19/05/24","18:10",0.0,28.9,28.1,1004.1,146.2,1.3,2.9,186.2,0.01,8.7,24.3,"18:08:00",1
"19/05/24","18:20",0.0,28.6,29.9,1004.1,152.7,1.3,2.6,147.2,0.01,9.3,24.1,"18:12:00",1
"19/05/24","18:30",0.0,28.0,30.6,1004.1,174.0,1.6,3.6,133.6,0.01,9.2,24.0,"18:20:48",1
"19/05/24","18:40",0.0,27.9,29.0,1004.1,200.6,1.6,4.3,220.1,0.00,8.3,23.9,"18:33:52",1
"19/05/24","18:50",0.0,27.4,31.9,1003.6,214.4,1.2,2.7,224.8,0.00,9.3,23.8,"18:42:00",1
"19/05/24","19:00",0.0,26.6,36.4,1004.5,317.7,1.0,2.0,354.0,0.00,10.5,23.8,"18:56:48",1
"19/05/24","19:10",0.0,25.6,39.2,1004.8,349.8,1.0,1.7,343.9,0.00,10.7,23.3,"19:00:32",1
"19/05/24","19:20",0.0,24.7,41.4,1005.0,337.6,1.0,1.4,341.5,0.00,10.8,23.3,"19:11:52",1
"19/05/24","19:30",0.0,23.7,44.8,1005.2,295.0,0.8,1.3,316.8,0.00,11.0,23.1,"19:20:24",1
"19/05/24","19:40",0.0,23.4,45.0,1005.7,285.8,1.0,1.3,258.0,0.00,10.8,23.1,"19:30:08",1
"19/05/24","19:50",0.0,22.9,47.1,1005.7,290.0,1.1,1.7,303.1,0.00,11.1,22.8,"19:44:40",1
"19/05/24","20:00",0.0,22.5,48.3,1005.7,280.4,1.0,1.4,245.2,0.00,11.1,22.4,"19:58:40",1
"19/05/24","20:10",0.0,22.1,49.2,1006.0,287.7,1.1,1.6,274.5,0.00,11.0,22.3,"20:08:16",1
"19/05/24","20:20",0.0,21.9,49.9,1006.2,301.0,1.1,1.9,317.0,0.00,11.0,22.3,"20:17:44",1
"19/05/24","20:30",0.0,21.7,49.8,1006.4,297.8,1.1,1.7,320.8,0.00,10.8,22.0,"20:23:44",1
"19/05/24","20:40",0.0,21.5,50.4,1006.9,305.9,1.2,2.1,308.4,0.00,10.8,21.6,"20:35:44",1
"19/05/24","20:50",0.0,21.3,52.4,1006.9,316.1,1.1,2.0,332.0,0.00,11.2,21.7,"20:42:08",1
"19/05/24","21:00",0.0,20.3,58.5,1006.9,329.8,1.3,2.1,335.6,0.00,11.9,21.7,"20:50:08",1
"19/05/24","21:10",0.0,20.5,53.9,1007.1,307.8,1.2,3.1,344.6,0.00,10.9,21.4,"21:08:12",1
"19/05/24","21:20",0.0,20.4,53.1,1007.8,300.3,1.0,1.6,332.1,0.00,10.6,21.3,"21:18:40",1
"19/05/24","21:30",0.0,20.3,53.2,1007.6,303.3,1.2,2.2,328.3,0.00,10.5,21.3,"21:24:40",1
"19/05/24","21:40",0.0,20.4,52.2,1007.8,304.9,1.7,3.4,327.5,0.00,10.3,21.0,"21:35:44",1
"19/05/24","21:50",0.0,20.4,51.2,1007.8,301.0,1.5,3.2,330.5,0.00,10.0,21.1,"21:48:16",1
"19/05/24","22:00",0.0,20.7,49.4,1007.8,314.3,2.1,3.5,328.1,0.00,9.8,20.8,"21:53:20",1
"19/05/24","22:10",0.0,20.2,49.7,1007.8,296.2,1.1,1.9,315.6,0.00,9.4,20.7,"22:06:40",1
"19/05/24","22:20",0.0,19.7,55.2,1007.8,327.4,1.1,2.2,331.8,0.00,10.5,20.6,"22:12:40",1
"19/05/24","22:30",0.0,19.0,54.9,1008.3,294.4,0.8,1.3,287.4,0.00,9.8,20.6,"22:25:52",1
"19/05/24","22:40",0.0,19.0,55.5,1008.1,299.7,1.1,1.6,329.4,0.00,9.9,20.5,"22:36:56",1
"19/05/24","22:50",0.0,18.2,62.2,1008.1,325.4,1.7,2.6,330.6,0.00,10.9,20.3,"22:42:32",1
"19/05/24","23:00",0.0,17.5,63.6,1007.8,315.7,1.3,1.8,317.4,0.00,10.6,20.3,"22:56:16",1
"19/05/24","23:10",0.0,17.2,64.6,1008.1,309.4,1.0,1.3,302.9,0.00,10.5,20.0,"23:00:40",1
"19/05/24","23:20",0.0,17.1,62.9,1007.8,310.7,1.1,3.7,324.0,0.00,10.0,20.0,"23:19:28",1
"19/05/24","23:30",0.0,17.6,59.3,1008.3,288.8,1.1,3.1,310.8,0.00,9.6,20.1,"23:20:08",1
"19/05/24","23:40",0.0,17.7,58.7,1008.3,316.9,1.1,1.7,310.2,0.00,9.6,19.9,"23:32:00",1
"19/05/24","23:50",0.0,17.3,59.2,1008.3,294.7,1.0,2.0,331.1,0.00,9.3,19.7,"23:46:48",1
"19/05/24","24:00",0.0,17.0,59.3,1008.3,307.8,0.6,1.2,328.0,0.00,9.1,19.6,"23:50:02",1
